This is the latest recevied weather packets stored in our database for station/object 9W2CHF-2. If no packets are shown the sender has not sent any weather packets the latest 10 day(s).
| Time | Temp. | Humidity | Pressure | Rain* | Wind** | Luminosity | Snow |
|---|---|---|---|---|---|---|---|
| 1787809539 | 32.78° C | 69% | 1011.8 hPa | - | - | - | - |
| 1787808647 | 32.78° C | 70% | 1012 hPa | - | - | - | - |
| 1787807747 | 32.22° C | 73% | 1012.3 hPa | - | - | - | - |
| 1787806852 | 32.78° C | 70% | 1012.3 hPa | - | - | - | - |
| 1787805947 | 32.78° C | 70% | 1012.5 hPa | - | - | - | - |
| 1787805046 | 32.78° C | 70% | 1012.6 hPa | - | - | - | - |
| 1787804146 | 32.78° C | 69% | 1012.9 hPa | - | - | - | - |
| 1787803246 | 32.78° C | 70% | 1013 hPa | - | - | - | - |
| 1787802345 | 32.78° C | 68% | 1013.4 hPa | - | - | - | - |
| 1787801445 | 32.78° C | 68% | 1013.7 hPa | - | - | - | - |
| 1787800545 | 32.78° C | 67% | 1013.9 hPa | - | - | - | - |
| 1787799644 | 32.78° C | 67% | 1014.1 hPa | - | - | - | - |
| 1787798745 | 32.22° C | 68% | 1014.1 hPa | - | - | - | - |
| 1787797844 | 32.22° C | 70% | 1014.2 hPa | - | - | - | - |
| 1787796944 | 32.22° C | 68% | 1014.3 hPa | - | - | - | - |
| 1787796044 | 32.22° C | 69% | 1014.4 hPa | - | - | - | - |
| 1787795143 | 32.22° C | 68% | 1014.3 hPa | - | - | - | - |
| 1787794243 | 32.22° C | 70% | 1014.3 hPa | - | - | - | - |
| 1787793343 | 32.22° C | 70% | 1014.3 hPa | - | - | - | - |
| 1787792442 | 32.22° C | 69% | 1014.2 hPa | - | - | - | - |
| 1787791542 | 31.67° C | 69% | 1014.1 hPa | - | - | - | - |
| 1787790642 | 31.67° C | 70% | 1014 hPa | - | - | - | - |
| 1787789742 | 31.67° C | 70% | 1014 hPa | - | - | - | - |
| 1787788842 | 31.67° C | 70% | 1013.7 hPa | - | - | - | - |
| 1787787942 | 31.67° C | 68% | 1013.6 hPa | - | - | - | - |
* Rain since midnight (hover to see other rain measurements)
** Current wind speed in m/s (hover to see current wind gust speed)